Location: Estes Park
(40.3770°N, 105.5210°W)
Time: 02:10:05
(UTC-07:00)

Vanguard 2 Rocket - All Passes

Search period start: 18 December 2017 00:00
Search period end: 28 December 2017 00:00
Orbit: 556 x 3326 km, 32.9° (Epoch: 16 December)

Date Brightness Start Highest point End Pass type
(mag) Time Alt. Az. Time Alt. Az. Time Alt. Az.
18 Dec - 00:49:09 10° W 01:04:41 32° SW 01:20:22 10° SSE visible
18 Dec - 17:07:30 10° SSW 17:15:20 38° SSE 17:28:13 10° E visible
18 Dec - 19:18:47 10° WSW 19:29:45 63° S 19:47:49 10° E visible
18 Dec - 21:32:10 10° W 21:46:26 61° SSW 22:06:11 10° ESE visible
18 Dec - 23:47:39 10° W 00:03:28 40° SSW 00:21:01 10° SSE visible
19 Dec - 02:09:25 10° WSW 02:18:57 16° SW 02:28:17 10° SSW visible
19 Dec - 16:09:49 10° SSW 16:16:02 26° SE 16:25:28 10° E daylight
19 Dec - 18:19:55 10° WSW 18:29:15 57° SSE 18:45:17 10° E visible
19 Dec - 20:32:31 10° W 20:45:05 64° S 21:04:20 10° ESE visible
19 Dec - 22:46:55 10° W 23:02:04 48° SSW 23:20:48 10° SE visible
20 Dec - 01:05:08 10° W 01:18:15 23° SW 01:31:42 10° S visible
20 Dec - 15:13:15 10° SSE 15:17:10 15° SE 15:22:11 10° ESE daylight
20 Dec - 17:21:25 10° SW 17:29:16 47° SSE 17:42:47 10° E visible
20 Dec - 19:33:14 10° WSW 19:44:05 64° S 20:02:04 10° ESE visible
20 Dec - 21:46:47 10° W 22:00:39 54° SSW 22:19:49 10° SE visible
21 Dec - 00:02:57 10° W 00:17:14 31° SW 00:33:11 10° SSE visible
21 Dec - 16:23:18 10° SSW 16:29:48 35° SSE 16:40:23 10° E daylight
21 Dec - 18:34:16 10° WSW 18:43:31 61° S 18:59:38 10° E visible
21 Dec - 20:47:06 10° W 20:59:24 58° SSW 21:18:13 10° ESE visible
21 Dec - 23:01:52 10° W 23:16:03 38° SSW 23:33:31 10° SSE visible
22 Dec - 01:23:07 10° WSW 01:31:51 15° SW 01:40:50 10° SSW night (unlit)
22 Dec - 15:25:47 10° S 15:30:46 23° SE 15:37:59 10° E daylight
22 Dec - 17:35:36 10° WSW 17:43:25 54° SSE 17:57:13 10° E visible
22 Dec - 19:47:46 10° W 19:58:27 61° S 20:16:10 10° ESE visible
22 Dec - 22:01:32 10° W 22:14:49 45° SSW 22:32:59 10° SE visible
23 Dec - 00:19:08 10° W 00:31:01 22° SW 00:44:09 10° S visible
23 Dec - 14:29:46 10° SSE 14:32:02 12° SE 14:34:40 10° ESE daylight
23 Dec - 16:37:14 10° SW 16:43:47 43° SSE 16:54:59 10° E daylight
23 Dec - 18:48:44 10° WSW 18:57:54 61° S 19:13:52 10° ESE visible
23 Dec - 21:01:45 10° W 21:13:42 50° SSW 21:31:45 10° SE visible
23 Dec - 23:17:19 10° W 23:30:00 29° SW 23:45:24 10° SSE visible
24 Dec - 15:39:16 10° SSW 15:44:36 31° SSE 15:52:58 10° E daylight
24 Dec - 17:49:59 10° WSW 17:57:44 57° S 18:11:34 10° E visible
24 Dec - 20:02:22 10° W 20:12:50 55° SSW 20:30:00 10° ESE visible
24 Dec - 22:16:36 10° W 22:28:57 35° SSW 22:45:31 10° SSE visible
25 Dec - 00:37:46 10° WSW 00:44:52 13° SW 00:52:26 10° SSW night (unlit)
25 Dec - 14:41:53 10° S 14:45:45 19° SE 14:50:58 10° E daylight
25 Dec - 16:51:28 10° WSW 16:58:01 50° SSE 17:09:27 10° E visible
25 Dec - 19:03:18 10° W 19:12:18 57° S 19:27:56 10° ESE visible
25 Dec - 21:16:36 10° W 21:27:59 41° SSW 21:44:47 10° SE visible
25 Dec - 23:33:47 10° WSW 23:44:00 19° SW 23:55:56 10° S visible
26 Dec - 15:53:14 10° SW 15:58:40 39° SSE 16:07:38 10° E daylight
26 Dec - 18:04:29 10° WSW 18:12:09 57° S 18:25:48 10° ESE visible
26 Dec - 20:17:05 10° W 20:27:13 46° SSW 20:43:27 10° SE visible
26 Dec - 22:32:13 10° W 22:43:06 26° SSW 22:57:07 10° SSE visible
27 Dec - 14:55:19 10° SSW 14:59:41 26° SSE 15:06:06 10° E daylight
27 Dec - 17:05:53 10° WSW 17:12:22 53° S 17:23:49 10° E visible
27 Dec - 19:17:57 10° W 19:26:44 50° SSW 19:41:44 10° ESE visible
27 Dec - 21:31:47 10° W 21:42:16 31° SSW 21:57:07 10° SSE visible
